Weather History for Davenport, IA

Change the Weather History Date:

Sunday, August 4, 2013

  Actual Average Record
Temperature  
Mean Temperature 66 °F 72 °F  
Max Temperature 79 °F 83 °F 96 °F (1983)
Min Temperature 52 °F 62 °F 52 °F (2013)
Degree Days  
Heating Degree Days 0 0  
Month to date heating degree days 0 0  
Since 1 June heating degree days 36 28  
Since 1 July heating degree days 12 4  
Cooling Degree Days 1 8  
Month to date cooling degree days 18 32  
Year to date cooling degree days 550 533  
Since 1 June cooling degree days 455 472  
Growing Degree Days 16 (Base 50)    
Moisture  
Dew Point 54 °F    
Average Humidity 65    
Maximum Humidity 93    
Minimum Humidity 37    
Precipitation  
Precipitation 0.00 in 0.16 in 2.65 in (1965)
Month to date precipitation 0.02 0.70  
Year to date precipitation 27.40 21.90  
Snow  
Snow 0.00 in - - ()
Month to date snowfall 0.0  
Since 1 June snowfall 0.0  
Since 1 July snowfall 0.0  
Snow Depth 0.00 in    
Sea Level Pressure  
Sea Level Pressure 30.16 in    
Wind  
Wind Speed 3 mph (East)    
Max Wind Speed 10 mph    
Max Gust Speed 15 mph    
Visibility 10 miles    
Events      
T = Trace of Precipitation, MM = Missing Value Source: NWS Daily Summary

Daily Weather History Graph

Daily Weather History Graph

Search for Another Location

Airport:

Trip Planner

Search our weather history database for the weather conditions in past years. The results will help you decide how hot, cold, wet, or windy it might be!

Date:

Astronomy

Aug. 04, 2013 Rise Set
Actual Time 6:00 AM CDT 8:16 PM CDT
Civil Twilight 5:29 AM CDT 8:46 PM CDT
Nautical Twilight 4:50 AM CDT 9:25 PM CDT
Astronomical Twilight 4:08 AM CDT 10:06 PM CDT
Moon 4:00 AM CDT (8/4) 6:39 PM CDT (8/4)
Length of Visible Light 15h 17m
Length of Day
14h 16m
Waning Crescent, 4% of the Moon is Illuminated
Aug 4
Waning Crescent
Aug 6
New
Aug 14
First Quarter
Aug 20
Full
Aug 28
Last Quarter

Hourly Weather History & Observations

Time (CDT) Temp. Dew Point Humidity Pressure Visibility Wind Dir Wind Speed Gust Speed Precip Events Conditions
12:52 AM 57.9 °F 55.0 °F 90% 30.18 in 10.0 mi NW 3.5 mph - N/A   Clear
1:52 AM 57.9 °F 55.0 °F 90% 30.19 in 10.0 mi NNW 5.8 mph - N/A   Clear
2:52 AM 57.0 °F 54.0 °F 89% 30.19 in 10.0 mi NNW 4.6 mph - N/A   Clear
3:52 AM 53.1 °F 51.1 °F 93% 30.16 in 10.0 mi Calm Calm - N/A   Clear
4:52 AM 54.0 °F 51.1 °F 90% 30.17 in 10.0 mi Calm Calm - N/A   Clear
5:52 AM 54.0 °F 51.1 °F 90% 30.18 in 10.0 mi NNE 4.6 mph - N/A   Clear
6:52 AM 55.9 °F 53.1 °F 90% 30.19 in 10.0 mi Calm Calm - N/A   Clear
7:52 AM 62.1 °F 55.9 °F 80% 30.21 in 10.0 mi Calm Calm - N/A   Clear
8:52 AM 68.0 °F 55.9 °F 65% 30.22 in 10.0 mi ENE 4.6 mph - N/A   Clear
9:52 AM 71.1 °F 55.0 °F 57% 30.20 in 10.0 mi East 6.9 mph - N/A   Clear
10:52 AM 73.9 °F 55.9 °F 53% 30.20 in 10.0 mi SE 3.5 mph - N/A   Clear
11:52 AM 75.9 °F 50.0 °F 40% 30.20 in 10.0 mi ENE 5.8 mph - N/A   Clear
12:52 PM 77.0 °F 51.1 °F 40% 30.18 in 10.0 mi Variable 5.8 mph - N/A   Clear
1:52 PM 78.1 °F 50.0 °F 37% 30.17 in 10.0 mi Calm Calm - N/A   Clear
2:52 PM 75.9 °F 51.1 °F 42% 30.17 in 10.0 mi South 4.6 mph - N/A   Scattered Clouds
3:52 PM 77.0 °F 52.0 °F 42% 30.15 in 10.0 mi Calm Calm - N/A   Scattered Clouds
4:52 PM 77.0 °F 52.0 °F 42% 30.13 in 10.0 mi Calm Calm - N/A   Clear
5:52 PM 75.9 °F 53.1 °F 45% 30.12 in 10.0 mi SSE 4.6 mph - N/A   Clear
6:52 PM 73.9 °F 53.1 °F 48% 30.12 in 10.0 mi East 6.9 mph - N/A   Mostly Cloudy
7:52 PM 72.0 °F 57.0 °F 59% 30.11 in 10.0 mi Calm Calm - N/A   Mostly Cloudy
8:52 PM 66.9 °F 57.9 °F 73% 30.10 in 10.0 mi Calm Calm - N/A   Clear
9:52 PM 64.0 °F 57.9 °F 80% 30.11 in 10.0 mi Calm Calm - N/A   Partly Cloudy
10:52 PM 62.1 °F 55.9 °F 80% 30.11 in 10.0 mi South 3.5 mph - N/A   Scattered Clouds
11:52 PM 64.9 °F 55.9 °F 73% 30.09 in 10.0 mi SE 3.5 mph - N/A   Overcast